Date,TemperatureHighF,TemperatureAvgF,TemperatureLowF,DewpointHighF,DewpointAvgF,DewpointLowF,HumidityHigh,HumidityAvg,HumidityLow,PressureMaxIn,PressureMinIn,WindSpeedMaxMPH,WindSpeedAvgMPH,GustSpeedMaxMPH,PrecipitationSumIn
2013-4-1,43.7,34.0,25.2,32.5,25.2,17.4,87,70,53,30.58,30.49,15,6,17,0.01
2013-4-2,36.3,33.5,30.2,31.6,29.1,25.9,89,84,78,30.57,30.52,7,2,8,0.05
2013-4-3,59.7,44.1,27.9,40.6,31.5,25.9,99,66,30,30.59,30.34,21,6,24,0.01
2013-4-4,68.5,52.6,35.6,33.4,25.8,16.7,70,39,15,30.60,30.40,16,6,23,0.00
2013-4-5,68.9,53.4,43.2,36.7,24.3,15.6,77,35,15,30.46,30.22,47,8,47,0.00
2013-4-6,60.3,49.2,38.8,27.9,20.4,13.8,51,33,19,30.42,30.23,37,12,37,0.00
2013-4-7,59.0,46.4,34.0,35.1,26.8,14.9,87,51,20,30.38,30.08,31,10,34,0.04
2013-4-8,61.7,40.1,18.3,33.6,25.1,11.5,84,58,24,30.33,30.04,27,9,28,0.01
2013-4-9,20.8,14.6,10.0,11.5,3.4,-3.5,74,61,49,30.57,30.32,21,4,23,0.00
2013-4-10,32.5,17.9,5.2,17.8,5.2,-8.3,81,58,34,30.55,30.33,17,7,19,0.02
2013-4-11,48.7,36.5,15.6,29.3,21.9,10.2,84,57,36,30.39,30.10,34,11,34,0.00
2013-4-12,52.0,38.0,29.5,32.9,27.3,18.0,87,67,30,30.45,30.17,23,7,28,0.00
2013-4-13,56.8,42.1,29.3,34.2,28.1,17.1,88,62,22,30.43,30.01,35,8,36,0.13
2013-4-14,40.5,34.9,30.9,27.1,3.1,-2.9,65,26,20,30.25,29.97,47,23,49,0.15
2013-4-15,33.8,21.1,18.1,21.6,15.0,2.3,85,78,26,30.45,30.21,17,6,19,0.00
2013-4-16,26.2,22.3,18.1,21.7,17.8,12.4,85,82,78,30.46,30.30,11,5,14,0.00
2013-4-17,26.2,21.2,13.5,21.4,15.1,5.5,85,77,66,30.56,30.37,8,0,9,0.00
2013-4-18,32.0,22.3,9.7,11.1,2.7,-2.6,70,44,25,30.54,30.45,0,0,0,0.00
2013-4-19,48.9,37.3,25.7,23.0,12.9,4.6,55,37,22,30.54,30.40,30,11,35,0.00
2013-4-20,57.6,41.6,30.0,32.4,25.6,19.6,81,55,26,30.48,30.19,15,5,15,0.00
2013-4-21,57.0,45.4,34.2,31.8,23.5,13.3,71,44,21,30.52,30.33,15,6,22,0.00
2013-4-22,43.3,28.2,18.0,31.8,20.8,11.7,82,74,58,30.68,30.38,25,8,40,0.04
2013-4-23,34.3,21.9,12.0,18.5,12.0,5.7,78,66,45,30.66,30.51,11,5,14,0.02
2013-4-24,50.4,36.7,20.8,18.0,10.0,5.7,65,36,20,30.63,30.39,30,9,31,0.00
2013-4-25,60.4,43.2,27.5,24.6,14.6,4.8,56,34,18,30.61,30.38,15,5,15,0.00
2013-4-26,67.3,51.2,38.1,23.9,17.0,7.9,56,28,14,30.66,30.47,14,6,17,0.00
2013-4-27,71.8,55.7,37.2,24.1,18.0,10.0,48,25,12,30.66,30.45,25,10,29,0.00
2013-4-28,75.7,62.4,47.3,35.6,20.9,14.0,49,21,12,30.50,30.33,30,14,36,0.00
2013-4-29,72.7,60.5,44.4,38.1,26.1,14.4,62,31,11,30.41,30.13,31,10,38,0.00
2013-4-30,55.9,51.6,39.6,33.8,25.2,19.8,76,37,25,30.25,30.17,19,6,21,0.00